Epoch 2009 July 28.0 TT = JDT 2455040.5
T 2009 Aug. 4.17415 TT MPC
q 2.4402029 (2000.0) P Q
n 0.12683753 Peri. 224.00341 +0.90071263 -0.40185707
a 3.9231736 Node 157.97980 +0.40476118 +0.91426169
e 0.3780028 Incl. 26.11024 -0.15775028 +0.05134640
P 7.77